星链-3618 (STARLINK-3618 )

导读

STARLINK-3618是美国太空探索技术公司(SpaceX)部署于近地轨道的星链卫星,于北京时间2022年3月9日发射。作为星链星座的组成部分,它主要为全球缺乏传统基础设施的偏远地区提供高速低延迟宽带互联网服务,目前仍在正常运行,助力实现星链网络的全球覆盖目标。

基本信息
目录编号:
51998
目录名称:
STARLINK-3618
国际标识:
2022-025AU
轨道中心:
EARTH
卫星名称:
星链-3618
卫星全名:
星链-3618 (STARLINK-3618 )
卫星状态:
在轨 (已飞行1561 天)
发射日期:
2022-03-09 UTC
国别 :
美国 (US)
星等 :
--
轨道信息
数据来源 国际轨道数据 AOE轨道数据
星历时间 2026-06-17T20:31:33+0800
4小时前
查看轨道信息
2026-06-12T08:00:00+0800
5天前
查看轨道信息
半长轴 6917.894km 6917.898km
偏心率 0.0001105 0.0001957
轨道倾角 53.161° 53.161°
近地点辐角 87.260° 92.359°
升交点赤经 290.856° 315.677°
平近点角 272.852° 137.364°
近地点 538.992km 538.407km
远地点 540.522km 541.115km
周期 95.438分钟 95.438分钟
每日圈数 15.088357 15.088345
详细信息
固有亮度:
5
最大亮度:
2.5
卫星平台:
Starlink v1.5
覆盖范围:
全球
运营商:
太空探索技术公司
运营商所在国:
美国
制造商(研发单位):
太空探索技术公司
制造商所在国:
美国
使用方式:
暂无
卫星简介
星链(Starlink)计划是由太空探索技术公司(SpaceX)提出的一个巨型低轨卫星互联网星座项目,计划在2019年至2024年间在太空搭建由约1.2万颗卫星组成的“星链”网络,其中1584颗将部署在地球上空550千米处的近地轨道,并从2020年开始工作。该卫星仍在工作。
2D轨道图
3D轨道图
轨道高度分析图
轨道倾角分析图
轨道综合分析图
查看轨道综合分析图